• In United Kingdom
  • List of Countries
  • For 7 days
  • Water Temperature
  • Satellite Maps
  • Weather Map
  • Weather Widgets
  • user-avatar
    Login

    Hourly Weather Santiago de Querétaro

    Today, 20 August, Sunday

    Time Temperature Precipitation Wind Pressure Humidity
    00:00 +17°C° 0 mm 3 mps 608 mmHg 88%
    01:00 +16°C° 0 mm 3 mps 608 mmHg 87%
    02:00 +16°C° 0 mm 3 mps 608 mmHg 85%
    03:00 +16°C° 0 mm 2 mps 608 mmHg 87%
    04:00 +15°C° 0 mm 2 mps 607 mmHg 89%
    05:00 +14°C° 0 mm 2 mps 607 mmHg 91%
    06:00 +16°C° 0 mm 2 mps 608 mmHg 82%
    07:00 +18°C° 0 mm 2 mps 609 mmHg 74%
    08:00 +20°C° 0 mm 2 mps 609 mmHg 65%
    09:00 +23°C° 0 mm 2 mps 610 mmHg 56%
    10:00 +25°C° 0 mm 3 mps 610 mmHg 47%
    11:00 +27°C° 0 mm 3 mps 610 mmHg 39%
    12:00 +28°C° 0 mm 3 mps 610 mmHg 36%
    13:00 +28°C° 0 mm 4 mps 610 mmHg 34%
    14:00 +29°C° 0 mm 4 mps 609 mmHg 32%
    15:00 +28°C° 0 mm 5 mps 609 mmHg 36%
    16:00 +27°C° 0 mm 5 mps 609 mmHg 41%
    17:00 +26°C° 0 mm 5 mps 608 mmHg 45%
    18:00 +23°C° 0 mm 5 mps 608 mmHg 55%
    19:00 +21°C° 0 mm 4 mps 608 mmHg 65%
    20:00 +19°C° 0 mm 4 mps 608 mmHg 74%
    21:00 +18°C° 0 mm 3 mps 608 mmHg 79%
    22:00 +17°C° 0 mm 3 mps 608 mmHg 84%
    23:00 +16°C° 0 mm 3 mps 608 mmHg 89%

    Tomorrow, 21 August, Monday

    Time Temperature Precipitation Wind Pressure Humidity
    00:00 +16°C° 0 mm 3 mps 608 mmHg 89%
    01:00 +16°C° 0 mm 2 mps 608 mmHg 88%
    02:00 +16°C° 0 mm 2 mps 607 mmHg 88%
    03:00 +15°C° 0 mm 2 mps 607 mmHg 88%
    04:00 +15°C° 0 mm 2 mps 607 mmHg 89%
    05:00 +14°C° 0 mm 2 mps 607 mmHg 90%
    06:00 +16°C° 0 mm 2 mps 608 mmHg 81%
    07:00 +18°C° 0 mm 2 mps 609 mmHg 72%
    08:00 +20°C° 0 mm 2 mps 610 mmHg 63%
    09:00 +23°C° 0 mm 2 mps 610 mmHg 55%
    10:00 +25°C° 0 mm 3 mps 611 mmHg 47%
    11:00 +27°C° 0 mm 3 mps 611 mmHg 39%
    12:00 +28°C° 0 mm 3 mps 611 mmHg 37%
    13:00 +28°C° 0 mm 4 mps 610 mmHg 36%
    14:00 +29°C° 0 mm 4 mps 610 mmHg 34%
    15:00 +28°C° 0 mm 4 mps 610 mmHg 38%
    16:00 +27°C° 0 mm 5 mps 609 mmHg 42%
    17:00 +26°C° 0 mm 5 mps 609 mmHg 45%
    18:00 +23°C° 0 mm 4 mps 609 mmHg 54%
    19:00 +21°C° 0 mm 4 mps 609 mmHg 63%
    20:00 +19°C° 0 mm 3 mps 609 mmHg 72%
    21:00 +18°C° 0 mm 3 mps 609 mmHg 78%
    22:00 +17°C° 0 mm 3 mps 609 mmHg 83%
    23:00 +16°C° 0 mm 2 mps 609 mmHg 89%

    Day after tomorrow, 22 August, Tuesday

    Time Temperature Precipitation Wind Pressure Humidity
    00:00 +16°C° 0 mm 2 mps 608 mmHg 90%
    01:00 +15°C° 0 mm 2 mps 608 mmHg 91%
    02:00 +15°C° 0 mm 2 mps 607 mmHg 92%
    03:00 +15°C° 0 mm 2 mps 607 mmHg 91%
    04:00 +15°C° 0 mm 1 mps 607 mmHg 91%
    05:00 +14°C° 0 mm 1 mps 607 mmHg 91%
    06:00 +16°C° 0 mm 1 mps 608 mmHg 82%
    07:00 +18°C° 0 mm 2 mps 609 mmHg 74%
    08:00 +20°C° 0 mm 2 mps 610 mmHg 65%
    09:00 +23°C° 0 mm 2 mps 611 mmHg 57%
    10:00 +25°C° 0 mm 2 mps 611 mmHg 50%
    11:00 +27°C° 0 mm 3 mps 612 mmHg 42%
    12:00 +28°C° 0 mm 3 mps 611 mmHg 40%
    13:00 +28°C° 0 mm 3 mps 611 mmHg 39%
    14:00 +29°C° 0 mm 4 mps 610 mmHg 37%
    15:00 +28°C° 0 mm 4 mps 610 mmHg 41%
    16:00 +27°C° 0 mm 4 mps 609 mmHg 45%
    17:00 +26°C° 0 mm 4 mps 609 mmHg 49%
    18:00 +23°C° 0 mm 4 mps 609 mmHg 58%
    19:00 +21°C° 0 mm 3 mps 609 mmHg 66%
    20:00 +19°C° 0 mm 3 mps 609 mmHg 74%
    21:00 +18°C° 0 mm 3 mps 608 mmHg 79%
    22:00 +18°C° 0 mm 2 mps 608 mmHg 84%
    23:00 +17°C° 0 mm 2 mps 608 mmHg 88%

    23 August, Wednesday

    Time Temperature Precipitation Wind Pressure Humidity
    00:00 +17°C° 0 mm 2 mps 608 mmHg 89%
    01:00 +16°C° 0 mm 2 mps 607 mmHg 90%
    02:00 +16°C° 0 mm 2 mps 607 mmHg 91%
    03:00 +16°C° 0 mm 2 mps 607 mmHg 90%
    04:00 +16°C° 0 mm 2 mps 607 mmHg 89%
    05:00 +16°C° 0 mm 1 mps 607 mmHg 88%
    06:00 +17°C° 0 mm 2 mps 607 mmHg 81%
    07:00 +19°C° 0 mm 2 mps 608 mmHg 73%
    08:00 +20°C° 0 mm 2 mps 609 mmHg 66%
    09:00 +23°C° 0 mm 2 mps 609 mmHg 57%
    10:00 +25°C° 0 mm 3 mps 610 mmHg 49%
    11:00 +27°C° 0 mm 3 mps 610 mmHg 41%
    12:00 +28°C° 0 mm 4 mps 609 mmHg 40%
    13:00 +28°C° 0 mm 4 mps 609 mmHg 38%
    14:00 +29°C° 0 mm 4 mps 608 mmHg 37%
    15:00 +28°C° 0 mm 5 mps 608 mmHg 40%
    16:00 +27°C° 0 mm 5 mps 607 mmHg 43%
    17:00 +26°C° 0 mm 5 mps 607 mmHg 47%
    18:00 +23°C° 0 mm 4 mps 607 mmHg 55%
    19:00 +21°C° 0 mm 4 mps 607 mmHg 63%
    20:00 +19°C° 0 mm 3 mps 607 mmHg 71%
    21:00 +18°C° 0 mm 3 mps 606 mmHg 77%
    22:00 +17°C° 0 mm 3 mps 606 mmHg 82%
    23:00 +16°C° 0 mm 2 mps 606 mmHg 88%

    24 August, Thursday

    Time Temperature Precipitation Wind Pressure Humidity
    00:00 +16°C° 0 mm 2 mps 606 mmHg 89%
    01:00 +15°C° 0 mm 2 mps 605 mmHg 91%
    02:00 +15°C° 0 mm 2 mps 605 mmHg 92%
    03:00 +15°C° 0 mm 2 mps 605 mmHg 93%
    04:00 +14°C° 0 mm 2 mps 605 mmHg 93%
    05:00 +14°C° 0 mm 2 mps 605 mmHg 93%
    06:00 +16°C° 0 mm 2 mps 606 mmHg 84%
    07:00 +18°C° 0 mm 3 mps 606 mmHg 75%
    08:00 +20°C° 0 mm 3 mps 607 mmHg 66%
    09:00 +22°C° 0 mm 3 mps 608 mmHg 58%
    10:00 +25°C° 0 mm 4 mps 608 mmHg 50%
    11:00 +27°C° 0 mm 5 mps 608 mmHg 43%
    12:00 +27°C° 0.1 mm 5 mps 608 mmHg 43%
    13:00 +28°C° 0.1 mm 5 mps 607 mmHg 43%
    14:00 +28°C° 0.1 mm 6 mps 606 mmHg 42%
    15:00 +27°C° 0.2 mm 6 mps 606 mmHg 47%
    16:00 +26°C° 0.2 mm 6 mps 606 mmHg 51%
    17:00 +23°C° 0.2 mm 6 mps 606 mmHg 55%
    18:00 +22°C° 0.1 mm 5 mps 606 mmHg 63%
    19:00 +20°C° 0.1 mm 4 mps 606 mmHg 72%
    20:00 +18°C° 0.1 mm 3 mps 606 mmHg 80%
    21:00 +17°C° 0 mm 3 mps 606 mmHg 83%
    22:00 +17°C° 0 mm 3 mps 605 mmHg 86%
    23:00 +16°C° 0 mm 3 mps 605 mmHg 88%

    25 August, Friday

    Time Temperature Precipitation Wind Pressure Humidity
    00:00 +16°C° 0 mm 3 mps 605 mmHg 88%
    01:00 +16°C° 0 mm 3 mps 605 mmHg 87%
    02:00 +16°C° 0 mm 2 mps 605 mmHg 87%
    03:00 +16°C° 0 mm 2 mps 605 mmHg 88%
    04:00 +15°C° 0 mm 2 mps 605 mmHg 89%
    05:00 +15°C° 0 mm 2 mps 605 mmHg 89%
    06:00 +16°C° 0 mm 3 mps 605 mmHg 84%
    07:00 +17°C° 0 mm 3 mps 606 mmHg 78%
    08:00 +19°C° 0 mm 3 mps 607 mmHg 73%
    09:00 +20°C° 0 mm 4 mps 607 mmHg 68%
    10:00 +21°C° 0 mm 4 mps 607 mmHg 63%
    11:00 +23°C° 0 mm 5 mps 608 mmHg 58%
    12:00 +23°C° 0.1 mm 5 mps 607 mmHg 58%
    13:00 +23°C° 0.1 mm 5 mps 607 mmHg 57%
    14:00 +25°C° 0.1 mm 5 mps 607 mmHg 56%
    15:00 +22°C° 0.2 mm 5 mps 607 mmHg 63%
    16:00 +21°C° 0.2 mm 5 mps 606 mmHg 71%
    17:00 +19°C° 0.2 mm 4 mps 606 mmHg 78%
    18:00 +18°C° 0.1 mm 4 mps 606 mmHg 81%
    19:00 +17°C° 0.1 mm 3 mps 606 mmHg 85%
    20:00 +17°C° 0.1 mm 2 mps 606 mmHg 88%
    21:00 +16°C° 0 mm 2 mps 606 mmHg 89%
    22:00 +16°C° 0 mm 2 mps 606 mmHg 89%
    23:00 +16°C° 0 mm 2 mps 606 mmHg 89%
    Show more